Terug naar catalogus

STARLINK-35799

ActiefCommunicatieVLEO
NORAD 66290·PAYLOAD·🇺🇸 United States

Gelanceerd Oct 31, 2025 vanaf Vandenberg Space Force Base

Loading…

Volgende Passages (komende 24 uur)

TLE

VersSource: CelesTrak SupGP

Epoch: Sep 15, 2026, 03:42 UTC

1 66290C 25247AB  26258.15465278  .00044502  00000+0  13151-2 0  2589
2 66290  53.1608  26.8985 0001365  91.2746 316.0719 15.34360553    13

Volg STARLINK-35799 in realtime met AllMySat

Download on the App Store